Regional Weather Roundup
Issued by NWS

Home | Current Version | Previous Version | Graphics & Text | Print | Product List | Glossary On
Versions: 1 2 3 4 5 6 7 8 9 10 11 12 13 14 15 16 17 18 19 20 21 22 23 24 25 26 27 28 29 30 31 32 33 34 35 36 37 38 39 40 41 42 43 44 45 46 47 48 49 50
000
ASUS44 KMEG 252110
RWRTN
TENNESSEE HOURLY STATE WEATHER ROUNDUP
NATIONAL WEATHER SERVICE MEMPHIS TN
300 PM CST SUN FEB 25 2018

TNZ002-004-019-021-049-052-054-088>092-252200-
WEST TENNESSEE

CITY           SKY/WX    TMP DP  RH WIND       PRES   REMARKS
MEMPHIS INTL   CLOUDY    54  38  54 S5        30.12R
NWS MEMPHIS      N/A     53 N/A N/A MISG        N/A
JACKSON        CLOUDY    53  35  50 CALM      30.13R
DYERSBURG      FAIR      51  36  56 CALM      30.14R
SOMERVILLE     SUNNY     54  41  62 SE3       30.11S
COVINGTON      SUNNY     52  36  54 CALM      30.13S
UNION CITY     SUNNY     50  34  53 CALM      30.13R
BOLIVAR        SUNNY     54  39  58 CALM      30.12S
PARIS          SUNNY     52  36  54 CALM      30.11R
LEXINGTON      SUNNY     54  37  54 W3        30.12R
SELMER         SUNNY     52  39  62 CALM      30.11S
SAVANNAH       SUNNY     52  45  76 CALM      30.12R
$$

TNZ008-025-027-028-033-062-065-066-252200-
NORTH MIDDLE TENNESSEE

CITY           SKY/WX    TMP DP  RH WIND       PRES   REMARKS
NASHVILLE      CLOUDY    55  41  59 CALM      30.09F
PORTLAND       SUNNY     52  41  66 CALM      30.08F
CLARKSVILLE    FAIR      53  37  54 NW3       30.09F
SMYRNA         FAIR      54  44  69 CALM      30.11R
COOKEVILLE     CLOUDY    54  50  87 VRB3      30.08S
GALLATIN       SUNNY     54  41  62 CALM      30.12S
CROSSVILLE     FAIR      52  45  77 VRB3      30.06S
$$

TNZ061-075-076-078-094-096-097-252200-
SOUTH MIDDLE TENNESSEE

CITY           SKY/WX    TMP DP  RH WIND       PRES   REMARKS
FAYETTEVILLE   CLOUDY    54  52  94 NW6       30.10R
TULLAHOMA      CLOUDY    54  50  87 NW6       30.09R
WINCHESTER     PTSUNNY   55  48  76 SW5       30.09R
MCMINNVILLE    MOSUNNY   54  48  82 NW5       30.08S
COLUMBIA       SUNNY     54  48  82 CALM      30.09S
SHELBYVILLE    MOSUNNY   54  48  82 NW5       30.10R
$$

TNZ017-018-042-046-047-252200-
NORTHEAST TENNESSEE

CITY           SKY/WX    TMP DP  RH WIND       PRES   REMARKS
TRI CITIES     CLOUDY    57  50  77 NW7       30.01F
ELIZABETHTON   FAIR      59  50  72 VRB6      29.99F
$$

TNZ012-013-036-069-073-074-252200-
CENTRAL EAST TENNESSEE

CITY           SKY/WX    TMP DP  RH WIND       PRES   REMARKS
KNOXVILLE      CLOUDY    57  50  77 W7        30.06R
OAK RIDGE      FAIR      58  51  78 CALM      30.05S
DOWNTOWN KNOXV SUNNY     57  50  77 VRB6      30.05R
GATLINBURG     PTSUNNY   57  50  77 NW7G17    30.03R
JACKSBORO      SUNNY     59  48  67 CALM      30.07R
$$

TNZ083-085-099-252200-
SOUTHEAST TENNESSEE

CITY           SKY/WX    TMP DP  RH WIND       PRES   REMARKS
CHATTANOOGA    PTSUNNY   59  51  75 VRB6      30.06S
$$

SKY/WX REPORTED AS FAIR MEANS FEW OR NO CLOUDS BELOW
12 THOUSAND FEET.




USA.gov is the U.S. government's official web portal to all federal, state and local government web resources and services.